Probability
0 0 0 0 0 0 0 0 0 0 1 3 3 3 3 3 2 2 4 6 7 7 7 9 9 10 10 8 6 6 6 6 7 7 5 5 7 8 7 7 7 7 8 9
0 0 0 0 0 0 0 0 0 1 2 3 3 3 3 2 1 2 4 6 7 7 8 8 8 8 7 6 6 7 9 9 9 8 6 6 8 9 10 9 8 7 7 7
0 0 0 0 0 0 0 0 0 1 3 3 2 2 2 2 1 2 4 5 5 5 7 8 7 6 4 4 5 7 10 11 10 9 7 7 8 8 9 9 8 7 7 6
0 0 0 0 0 0 0 0 0 1 2 2 1 0 1 2 3 3 4 5 4 4 5 7 7 5 4 4 5 6 9 11 10 8 8 8 7 6 5 5 6 7 6 6
0 0 0 0 0 0 0 0 0 1 1 1 0 0 0 2 3 3 4 5 5 4 4 6 6 5 5 6 5 6 8 10 9 7 6 7 6 4 4 3 4 4 4 5
0 0 0 0 0 0 0 0 0 0 0 0 0 0 0 1 1 2 3 5 4 4 4 5 5 5 5 5 5 6 7 8 8 6 5 4 4 3 3 2 1 1 2 2
0 0 0 0 0 0 0 0 0 0 0 0 0 0 0 1 1 2 3 3 3 3 4 5 6 6 5 4 4 5 6 6 5 4 3 3 3 2 1 1 0 0 0 1
0 0 0 0 0 0 0 0 0 0 0 0 0 0 0 1 3 3 3 3 2 3 4 5 6 6 6 6 6 6 5 3 2 2 1 1 2 1 0 0 1 1 0 0
0 0 0 0 0 0 0 0 0 0 0 0 0 0 0 1 3 2 2 3 3 3 4 5 6 6 6 6 6 5 4 2 2 2 1 1 1 1 0 0 1 1 0 0
0 0 0 0 0 0 0 0 0 0 0 0 0 0 0 0 1 1 1 3 5 5 5 6 5 4 3 3 3 3 2 1 1 1 1 0 0 0 0 0 1 1 0 0
0 0 0 0 0 0 0 0 0 0 0 0 0 0 0 0 0 0 1 3 5 5 6 5 4 2 1 1 1 1 1 0 0 0 0 1 1 0 0 0 0 0 0 0
0 0 0 0 0 0 0 0 0 0 0 0 0 0 0 0 0 1 1 2 4 4 4 4 2 1 0 0 0 0 0 0 0 0 0 1 1 1 1 1 1 0 0 0
0 0 0 0 0 0 0 0 0 0 0 0 0 0 0 0 1 1 1 2 3 3 2 2 2 0 0 0 0 0 0 0 0 0 0 1 1 1 1 2 2 2 2 1
0 0 0 0 0 0 0 0 0 0 0 0 0 0 0 0 1 1 1 3 3 3 2 1 1 0 0 0 0 0 0 0 0 0 0 0 0 1 1 3 3 3 3 3
0 0 0 0 0 0 0 0 0 0 0 0 0 0 0 0 1 1 2 2 3 3 3 2 2 1 0 0 0 0 0 0 0 0 0 0 0 0 1 2 2 3 3 3
0 0 0 0 0 0 0 0 0 0 0 0 0 0 0 0 1 1 2 2 2 3 3 3 3 2 1 0 0 0 0 0 0 0 0 0 0 0 1 1 1 2 3 3
0 0 0 0 0 0 0 0 0 0 0 0 0 0 0 0 1 2 2 2 1 1 2 3 3 3 2 1 0 0 0 0 0 0 0 0 0 0 0 0 0 1 2 1
0 0 0 0 0 0 0 0 0 0 0 0 0 0 0 0 1 2 2 2 1 1 1 2 3 3 2 1 0 0 0 0 0 0 0 0 1 1 1 0 0 1 1 0
0 0 0 0 0 0 0 0 0 0 0 0 0 0 0 0 0 1 1 2 2 2 1 1 2 3 2 1 0 0 0 0 0 0 0 0 1 1 1 0 0 0 0 0
0 0 0 0 0 0 0 0 0 0 0 0 0 0 0 0 0 0 1 2 3 2 1 0 2 3 2 1 0 0 0 0 0 0 0 0 0 0 0 0 0 0 0 0
0 0 0 0 0 0 0 0 0 0 0 0 0 0 0 0 0 1 1 3 3 2 0 0 1 2 2 1 0 0 0 0 0 0 0 0 0 0 0 0 0 0 0 0
0 0 0 0 0 0 0 0 0 0 0 0 0 0 0 0 1 2 3 3 3 2 0 0 0 1 1 1 0 0 0 0 0 0 0 0 0 0 0 0 0 0 0 0
0 0 0 0 0 0 0 0 0 0 0 0 0 0 0 0 1 2 3 3 2 1 0 0 1 2 1 1 0 0 0 0 0 0 0 0 0 0 0 0 0 0 0 0
0 0 0 0 0 0 0 0 0 0 0 0 0 0 0 0 0 1 2 1 1 0 1 1 2 3 2 1 0 0 0 0 0 0 0 0 0 0 0 0 0 0 0 0
0 0 0 0 0 0 0 0 0 0 0 0 0 0 0 0 0 0 0 0 0 0 1 2 3 4 3 1 0 0 0 0 0 0 0 0 0 0 0 0 0 0 0 0
0 0 0 0 0 0 0 0 0 0 0 0 0 0 0 0 0 0 0 0 0 0 1 3 4 4 3 1 0 0 0 0 0 0 0 0 0 0 0 0 0 0 0 0
Wind_Speed
1 2 4 8 8 8 5 4 4 5 3 2 3 3 5 5 5 6 5 6 7 6 5 5 5 5 4 3 3 3 3 2 2 2 1 1 1 1 0 1 1 1 2 2
2 6 11 7 6 5 4 3 4 3 2 2 2 3 4 5 6 7 8 7 6 5 4 4 4 4 4 3 3 2 3 3 2 2 2 2 1 1 1 1 1 1 2 2
7 9 6 4 5 4 5 4 5 4 1 1 2 2 2 2 2 4 5 6 6 7 6 5 4 3 3 2 2 3 3 3 2 2 1 1 1 1 0 1 1 1 2 2
6 8 5 4 6 5 5 6 5 4 2 2 2 1 4 2 2 4 5 6 6 5 5 4 4 3 3 2 2 2 2 2 2 2 2 3 2 1 2 2 2 2 2 2
6 5 4 5 7 5 6 5 4 3 2 1 1 3 4 0 2 5 6 7 6 6 6 5 4 4 3 3 2 2 2 1 1 1 2 2 1 1 1 1 2 2 1 2
7 5 4 6 6 5 3 3 4 4 4 1 4 3 4 4 6 6 6 7 6 5 6 4 4 3 2 2 2 2 2 1 1 1 1 1 1 1 1 1 1 1 1 1
5 5 4 2 2 4 3 6 4 5 4 4 3 2 5 5 4 6 8 7 5 5 5 5 4 3 2 2 2 2 2 1 1 1 1 1 1 2 2 2 1 1 0 1
2 6 4 3 4 3 2 7 6 3 3 4 3 1 4 3 3 5 7 7 5 5 5 5 4 3 3 3 2 2 2 1 1 1 0 0 1 1 1 1 1 1 1 1
4 5 4 4 3 5 2 2 7 6 1 0 2 1 3 0 3 5 6 6 5 5 5 5 4 3 3 3 2 2 2 1 1 1 1 0 0 0 0 0 0 1 1 1
4 2 5 2 2 1 5 5 5 5 3 2 2 3 4 5 5 5 6 6 4 4 4 4 4 3 3 3 2 2 2 2 2 1 1 1 0 0 1 1 1 0 0 1
4 3 4 2 2 3 1 2 4 4 5 5 3 5 5 8 7 7 6 6 6 5 4 4 3 3 3 2 2 2 2 2 1 1 1 0 0 0 1 1 1 1 1 1
2 5 2 5 5 4 5 5 6 5 3 4 4 5 3 6 7 7 6 6 5 5 4 4 4 3 2 2 2 2 1 1 1 1 1 1 0 1 1 1 1 1 1 0
3 5 2 5 7 5 1 1 3 4 4 3 4 4 0 4 5 5 6 5 5 5 4 3 2 2 2 2 2 2 2 2 1 1 1 1 1 1 1 0 0 0 1 0
5 4 5 6 6 3 2 2 1 4 3 3 5 5 3 4 5 4 5 5 5 5 4 3 2 2 2 2 2 2 2 2 2 2 1 1 0 0 0 0 1 0 0 0
5 3 1 3 3 1 1 2 0 2 5 6 6 7 7 7 7 6 6 5 6 5 4 4 3 2 1 1 1 2 2 1 2 2 1 1 1 1 0 0 0 0 0 1
3 2 1 2 2 2 2 2 1 1 2 4 5 3 3 4 5 6 7 7 6 5 4 4 3 3 2 2 2 2 1 1 2 1 1 0 1 1 0 0 1 1 1 1
1 3 2 2 4 3 2 1 1 2 3 5 4 4 3 5 6 6 6 6 5 4 4 3 3 3 3 2 2 2 2 1 2 1 1 1 1 0 1 1 1 1 1 1
5 4 3 1 2 1 5 1 4 6 4 4 4 4 6 6 5 4 5 6 5 4 4 3 2 2 1 1 2 2 2 2 2 1 1 1 1 1 1 1 1 1 1 1
6 6 3 2 1 3 3 1 2 4 2 2 5 5 4 5 5 3 1 3 4 4 4 3 3 2 2 2 2 3 2 2 1 1 1 1 1 1 0 1 1 1 1 1
4 5 5 3 3 3 4 4 1 7 2 2 4 6 5 5 3 2 1 2 3 3 3 3 2 2 2 1 2 3 2 1 1 1 1 1 1 1 2 2 2 1 1 1
3 3 2 3 2 3 4 3 3 4 5 3 4 6 5 4 4 4 2 2 3 3 3 3 3 2 2 2 3 3 1 2 3 2 1 1 1 1 2 2 1 1 1 1
3 2 1 2 2 5 4 2 3 5 3 4 4 4 4 4 4 4 3 3 3 2 2 2 2 2 1 2 3 2 2 3 2 1 1 1 2 1 1 1 1 1 1 1
2 4 4 5 5 5 2 3 3 4 4 3 3 3 6 6 4 3 3 3 3 2 2 1 2 1 0 1 2 2 3 2 1 1 1 1 1 1 1 1 1 1 1 1
2 1 2 1 1 1 1 1 1 3 3 3 4 5 6 5 5 4 3 2 2 1 2 2 2 1 1 1 1 2 2 1 1 1 1 1 1 2 2 1 1 1 1 2
2 1 1 0 1 1 1 0 1 1 3 4 4 4 5 5 4 4 3 2 2 2 1 2 2 1 1 1 1 1 0 2 1 0 1 1 1 1 1 2 2 2 2 3
2 3 3 4 5 4 4 3 3 2 2 3 4 3 4 5 5 4 3 2 2 2 1 2 2 1 1 1 1 1 1 2 1 0 2 2 2 2 1 2 3 4 3 5
Wind_Direction
268 108 229 232 217 212 223 240 271 271 239 162 192 200 205 194 173 157 158 160 154 158 163 147 141 138 129 133 147 162 164 178 154 141 146 151 184 210 292 269 241 208 183 182
0 257 240 235 244 237 243 264 278 292 282 162 190 231 206 198 188 174 171 164 159 146 139 141 139 132 136 155 163 164 169 175 175 176 177 174 170 188 202 262 271 220 204 203
208 243 238 227 253 259 259 222 221 222 314 7 99 337 270 237 159 153 150 148 148 153 158 158 143 139 143 150 168 162 173 171 174 169 135 97 67 32 46 264 257 232 204 211
236 247 245 244 256 232 250 227 199 191 136 269 165 240 276 210 172 166 159 151 152 151 148 157 151 159 172 170 154 150 157 158 161 153 150 158 157 195 222 215 223 235 217 220
242 219 215 241 249 234 230 220 204 213 172 319 325 133 281 167 191 193 174 163 163 155 155 164 160 165 167 157 154 153 145 133 147 167 178 165 177 218 238 248 239 241 238 229
247 240 210 227 254 254 213 51 26 44 70 9 264 159 251 232 212 190 179 169 162 151 145 145 135 123 122 133 155 153 140 129 121 139 158 163 175 206 196 261 246 254 260 252
286 276 254 224 286 319 74 82 30 6 14 263 288 135 238 237 207 173 165 161 158 149 145 142 133 131 135 141 165 157 144 148 166 155 187 186 181 195 198 223 225 234 320 286
231 280 244 204 188 206 189 138 150 191 222 278 341 213 266 244 150 140 144 146 144 142 151 151 154 165 168 157 153 143 151 170 196 147 168 162 181 198 214 224 201 190 205 225
187 252 257 223 195 151 149 180 168 141 151 2 294 290 302 170 116 121 129 132 143 156 161 160 161 164 161 158 156 148 148 155 166 147 130 151 231 177 177 242 176 192 209 200
164 246 283 270 49 43 159 156 94 111 148 222 243 219 218 197 175 151 143 148 163 160 156 159 161 166 164 162 148 127 131 155 170 175 184 148 181 184 143 91 58 39 45 67
133 160 296 344 171 199 126 107 115 130 155 158 217 262 227 189 172 156 157 160 160 158 157 161 167 173 164 143 134 129 123 112 139 181 188 120 3 204 102 91 69 74 67 69
150 134 247 261 263 197 158 165 150 154 208 161 161 258 253 166 161 150 153 160 155 153 153 157 167 162 143 143 149 151 151 143 177 177 149 161 178 90 82 74 56 88 90 64
110 109 57 341 341 347 38 152 144 136 125 148 154 246 14 130 133 146 150 157 156 142 141 144 141 138 157 168 162 164 179 189 186 141 118 90 73 87 97 108 10 95 95 39
97 109 158 198 229 248 304 321 144 116 141 173 187 181 173 153 149 153 152 154 143 134 139 138 136 150 161 159 155 164 190 188 164 134 134 139 156 146 166 77 38 78 105 62
91 116 213 245 251 210 284 310 328 170 181 174 195 179 194 185 172 160 148 143 129 127 131 134 145 160 165 150 146 153 177 184 160 141 150 206 209 162 108 40 355 335 315 287
82 116 25 317 319 8 359 348 74 90 112 136 134 175 204 169 137 136 143 141 136 143 151 150 148 148 156 169 173 167 171 168 132 131 151 131 122 97 43 293 291 309 298 295
100 120 97 276 300 357 315 276 130 121 107 133 164 203 148 133 142 150 145 139 145 153 157 153 157 166 169 172 164 165 169 143 121 137 140 136 130 111 270 294 348 313 297 297
148 129 135 213 16 226 242 265 111 105 86 101 120 139 150 155 153 141 134 139 147 143 136 153 166 163 165 159 150 147 132 126 132 127 151 177 168 207 261 320 310 290 296 290
153 143 136 132 179 269 300 357 117 125 68 62 115 114 110 103 80 60 88 128 144 153 155 164 172 153 130 127 135 126 128 135 137 158 199 219 185 191 242 284 283 276 276 293
73 107 126 139 161 223 264 303 97 100 71 330 115 125 124 102 108 235 247 125 122 126 140 143 126 103 116 143 124 117 128 127 176 216 222 222 188 188 214 239 249 260 245 261
41 53 112 150 183 253 283 303 57 115 220 226 148 147 147 156 186 196 165 127 126 115 139 139 126 128 161 153 126 137 168 216 226 215 216 225 207 210 224 236 249 260 261 293
145 125 152 138 172 252 300 65 126 204 200 159 156 158 141 132 126 131 127 120 117 105 119 135 129 138 172 146 136 162 224 237 224 204 224 261 271 267 266 266 283 283 261 290
141 174 175 176 204 233 247 173 184 151 146 164 155 149 131 128 139 140 138 140 145 142 152 148 145 151 191 174 158 189 245 245 210 208 264 271 288 300 289 252 276 313 307 275
324 58 100 90 276 269 72 70 128 138 144 147 146 145 140 142 148 145 151 159 161 154 161 151 128 125 252 256 217 224 251 200 146 198 260 272 278 300 312 309 277 253 257 262
280 4 59 125 249 44 7 234 165 129 118 119 128 147 153 145 149 155 168 178 178 168 171 155 149 168 241 259 269 278 194 128 116 303 288 283 268 263 290 306 282 253 243 227
244 181 170 222 225 183 223 231 155 131 146 146 136 132 143 146 151 148 157 167 170 167 173 166 172 187 230 243 257 269 241 156 145 268 290 281 274 270 261 278 307 299 275 276